Theta_e
337 342 345 344 343 345 348 350 356 359 358 356 355 354 356 354 355 354 354 353 355 351 348 343 345 344 344 344 345 344 342 341 349
336 341 344 346 348 348 352 352 355 356 353 355 357 354 354 351 355 353 351 351 350 343 342 339 340 341 341 342 342 341 340 338 340
337 343 345 347 348 350 350 351 353 353 354 355 354 351 349 348 348 349 348 345 342 341 340 341 340 339 340 339 336 335 334 333 337
340 341 346 346 348 349 350 350 350 349 349 347 347 348 348 347 344 343 342 339 339 339 340 340 338 337 335 334 333 333 334 334 335
342 345 346 345 347 348 347 347 349 346 346 346 345 347 346 342 341 341 337 338 337 337 337 339 336 336 335 334 329 329 328 329 331
346 346 346 347 347 348 350 348 344 344 345 344 343 343 338 337 335 335 335 336 335 335 335 334 333 333 332 326 324 321 324 328 330
343 344 346 347 345 347 347 344 342 344 344 344 340 339 338 337 335 336 332 334 333 332 332 331 330 328 326 324 320 319 323 327 329
342 343 343 343 343 343 344 342 345 345 342 342 339 337 335 335 336 334 333 332 331 329 328 328 329 324 321 319 312 316 319 322 325
341 341 342 343 346 343 342 341 343 342 340 339 339 337 334 334 334 333 331 330 328 329 327 328 329 326 321 317 310 317 319 321 321
342 341 342 343 341 342 340 340 342 339 338 336 336 334 333 332 332 330 328 328 328 327 326 327 327 326 326 319 315 317 317 320 320
344 343 344 344 343 341 341 341 338 339 335 336 334 332 331 331 330 327 327 327 327 328 327 327 328 325 326 325 316 315 316 318 322
346 345 347 345 345 343 343 339 338 337 333 332 331 330 329 329 329 327 327 326 327 329 330 330 329 328 327 326 321 313 314 317 319
346 345 347 345 345 344 340 337 336 334 331 330 329 328 328 330 330 328 326 328 329 331 331 331 326 329 330 323 322 313 313 315 317
346 347 346 347 344 338 337 336 334 332 331 329 329 328 328 330 330 328 329 330 332 331 332 331 329 328 330 329 327 319 312 313 320
346 346 344 342 339 336 336 336 335 330 329 330 330 329 328 328 329 324 324 329 330 331 331 328 328 327 326 325 327 322 313 313 313
346 345 342 340 338 337 336 336 335 329 330 330 329 328 326 327 329 330 329 329 329 326 329 325 326 325 325 326 326 321 315 314 315
344 342 340 339 336 334 334 336 334 332 330 331 328 327 327 328 327 328 328 325 324 324 327 321 317 318 320 323 326 322 324 319 321
343 341 340 337 333 333 332 332 329 329 329 329 326 326 325 324 324 323 325 325 328 326 328 320 320 321 323 321 320 320 313 313 318
342 341 338 336 335 330 329 330 329 328 329 329 327 325 324 322 320 320 321 321 323 311 312 310 306 305 312 324 312 304 303 304 304
335 339 337 335 333 332 330 330 327 329 330 330 329 326 323 322 320 322 324 326 326 319 313 305 303 302 301 301 304 301 298 299 299
Wind_Speed
18 24 21 20 17 14 11 9 10 12 10 7 7 6 5 3 4 2 3 6 3 5 5 6 7 6 6 6 5 6 7 5 4
17 24 22 19 15 14 10 10 10 11 10 8 7 7 7 5 3 3 5 4 6 7 7 6 7 6 6 6 6 7 8 6 6
14 19 21 19 14 13 12 11 8 10 7 7 8 8 9 6 6 6 6 6 6 6 6 5 6 6 6 9 11 11 11 9 9
13 17 18 16 16 13 14 13 12 11 9 9 8 7 8 7 7 6 6 6 6 5 5 5 7 8 10 8 7 7 5 6 7
14 15 17 17 17 14 19 14 13 12 11 10 9 8 7 7 6 6 6 5 6 6 6 5 8 4 4 6 10 9 9 9 7
14 16 17 17 16 13 14 13 12 11 9 8 9 8 8 7 6 6 6 6 7 6 5 6 8 7 8 9 8 9 8 7 7
17 16 17 16 16 14 13 14 12 10 10 9 9 9 8 6 6 6 7 6 6 7 7 7 7 8 8 7 8 9 9 10 7
18 18 19 17 17 16 13 14 11 10 11 8 10 8 7 6 7 7 7 7 6 7 7 6 6 8 9 10 9 9 9 10 10
20 19 18 18 19 17 16 15 12 11 10 10 9 8 8 7 6 7 6 6 6 5 5 6 5 6 8 8 8 15 16 12 9
20 20 20 19 18 18 16 16 12 12 11 10 9 9 8 7 7 7 6 6 5 5 5 5 5 5 5 7 7 14 17 19 7
20 18 19 20 17 17 18 17 16 12 12 10 9 9 9 8 8 8 6 6 5 4 4 4 3 4 5 5 5 12 14 19 9
18 18 17 16 17 18 15 16 14 12 11 10 9 9 9 8 8 8 6 6 4 3 2 3 3 3 4 2 4 5 10 11 8
21 21 19 18 18 17 17 16 14 11 11 10 9 9 8 7 8 8 6 5 4 2 3 2 4 1 4 7 6 4 2 6 5
21 18 19 18 18 16 17 15 14 12 11 10 10 9 8 7 7 7 6 4 3 4 2 1 4 5 4 6 6 7 6 3 3
19 21 19 19 16 15 15 14 12 12 11 11 11 10 9 8 7 7 7 6 4 5 4 6 7 7 7 8 7 9 8 9 8
20 19 18 17 16 15 13 13 11 11 11 11 11 10 9 8 7 6 7 5 6 5 7 7 6 4 2 2 7 6 8 11 10
18 18 17 16 17 16 13 11 10 11 11 10 10 10 9 7 5 4 5 6 6 8 2 5 5 5 4 4 3 5 4 4 2
17 17 15 14 12 15 13 11 11 11 10 10 9 9 8 8 7 7 7 7 3 3 3 2 2 3 2 2 3 3 3 2 2
15 15 15 16 14 15 13 11 12 11 11 10 9 8 7 8 8 8 8 7 4 4 6 11 10 7 4 4 6 8 6 6 8
14 15 15 15 13 14 13 11 11 11 10 9 8 7 7 5 4 5 4 3 3 7 7 8 6 10 12 10 11 8 8 10 8
Wind_Direction
166 138 151 155 157 165 144 155 140 116 129 133 135 151 106 75 85 111 41 29 343 46 28 58 39 20 18 12 6 15 13 320 14
158 144 150 144 157 150 142 120 124 125 140 162 160 135 139 136 104 81 83 32 17 45 37 18 35 16 17 8 23 19 357 4 17
149 140 144 148 155 129 121 130 116 112 125 142 122 112 107 110 104 95 94 72 58 64 43 35 34 18 18 31 38 24 14 358 12
154 144 142 144 138 145 130 125 127 125 135 119 132 112 105 112 108 98 76 81 66 55 62 46 40 26 45 24 44 7 19 338 22
156 149 146 151 139 154 125 136 135 147 155 148 126 110 116 111 94 82 80 58 80 52 51 40 74 33 81 36 47 23 13 4 349
154 149 145 140 139 146 123 132 134 146 153 133 133 150 134 123 116 100 85 76 66 69 53 54 47 37 39 53 50 27 5 342 17
161 155 145 137 142 132 137 131 145 166 145 145 152 107 94 97 85 64 77 82 74 79 62 55 50 44 28 59 44 33 8 358 5
163 156 149 149 150 140 152 140 153 150 143 130 105 111 119 97 89 86 84 86 78 65 61 65 67 65 39 12 45 28 8 350 338
169 155 155 160 142 148 155 156 155 141 130 123 137 130 113 112 114 113 105 95 88 94 86 72 60 80 74 36 28 10 8 2 319
169 162 158 152 159 152 157 159 147 141 134 133 134 124 124 129 131 116 114 116 115 102 91 79 64 49 78 73 22 8 3 351 320
164 166 156 148 154 157 160 155 150 139 139 137 131 133 132 139 135 127 136 129 129 127 110 95 85 71 22 80 51 6 358 354 339
160 154 146 148 156 157 155 145 136 138 139 139 142 139 141 150 143 140 149 149 134 115 161 184 178 149 140 26 100 11 359 356 343
156 157 146 162 156 143 134 133 136 145 143 145 146 142 145 153 147 147 154 136 158 182 252 249 303 89 204 164 158 205 12 358 348
146 147 154 156 144 139 135 138 147 148 148 152 141 138 141 149 148 152 138 171 188 205 239 270 252 242 233 202 179 175 195 264 320
147 148 143 133 132 132 138 142 146 149 157 138 135 140 144 150 156 183 163 186 191 241 230 235 241 249 245 195 168 169 206 223 237
144 144 140 139 134 139 143 144 152 156 136 142 146 148 151 162 180 214 153 193 206 229 239 252 220 208 299 92 155 173 189 212 232
145 140 139 137 144 147 142 140 143 128 140 148 153 152 162 167 177 179 181 219 224 234 194 35 15 344 343 16 18 141 136 208 214
137 136 142 137 154 137 141 139 132 140 147 159 158 158 173 173 194 196 200 238 199 96 94 168 238 257 287 301 293 134 140 168 279
132 143 138 144 136 130 139 144 138 149 158 172 166 174 191 196 172 190 206 200 175 226 185 195 212 239 242 254 235 161 183 203 235
132 126 134 137 134 137 140 144 150 156 162 182 181 198 198 196 233 196 178 198 227 192 226 228 235 246 245 236 250 266 248 247 260